START_TIME,STEP,MOV.,M15,t_acc.,M20,t_acc.
1979-03-04 15:13:45.410 ,0,0,0.,24.0,0.,24.0
1979-03-04 15:14:09.410 ,5,1,0.,24.0,0.,24.0
1979-03-04 15:14:33.410 ,6,1,0.,24.0,0.,24.0
1979-03-04 15:14:57.410 ,7,1,0.,24.0,0.,24.0
1979-03-04 15:15:21.410 ,7,1,0.,24.0,0.,24.0
1979-03-04 15:15:45.410 ,6,1,0.,24.0,0.,24.0
1979-03-04 15:16:09.410 ,5,1,0.,24.0,0.,24.0
1979-03-04 15:16:33.410 ,4,1,0.,24.0,0.,24.0
1979-03-04 15:16:57.410 ,3,1,0.,24.0,0.,24.0
1979-03-04 15:17:21.410 ,2,1,0.,24.0,0.,24.0
1979-03-04 15:17:45.410 ,1,1,0.,24.0,0.,24.0
1979-03-04 15:18:09.410 ,0,1,0.,24.0,0.,24.0
1979-03-04 15:18:33.410 ,0,1,0.,24.0,0.,24.0
1979-03-04 15:18:57.410 ,1,1,0.,24.0,0.,24.0
1979-03-04 15:19:21.410 ,2,1,0.,24.0,0.,24.0
1979-03-04 15:19:45.410 ,3,1,0.,24.0,0.,24.0
1979-03-04 15:20:09.410 ,4,1,0.,24.0,0.,24.0
1979-03-04 15:20:33.410 ,5,1,0.,24.0,0.,24.0
1979-03-04 15:20:57.410 ,6,1,0.,24.0,0.,24.0
1979-03-04 15:21:21.410 ,7,1,0.,24.0,0.,24.0
1979-03-04 15:21:45.410 ,7,1,0.,24.0,0.,24.0
1979-03-04 15:22:09.410 ,6,1,0.,24.0,0.,24.0
1979-03-04 15:22:33.410 ,5,1,0.,24.0,0.,24.0
1979-03-04 15:22:57.410 ,4,1,0.,24.0,0.,24.0
1979-03-04 15:23:21.410 ,0,0,0.,24.0,0.,24.0
1979-03-04 15:23:45.410 ,2,1,0.,24.0,0.,24.0
1979-03-04 15:24:09.410 ,1,1,0.,24.0,0.,24.0
1979-03-04 15:24:33.410 ,0,1,0.,24.0,0.,24.0
1979-03-04 15:24:57.410 ,0,1,0.,24.0,0.,24.0
1979-03-04 15:25:21.410 ,1,1,0.,24.0,0.,24.0
1979-03-04 15:25:45.410 ,2,1,0.,24.0,0.,24.0
1979-03-04 15:26:09.410 ,3,1,0.,24.0,0.,24.0
1979-03-04 15:26:33.410 ,4,1,0.,24.0,0.,24.0
1979-03-04 15:26:57.410 ,5,1,0.,24.0,0.,24.0
1979-03-04 15:27:21.410 ,6,1,0.,24.0,0.,24.0
1979-03-04 15:27:45.410 ,7,1,0.,24.0,0.,24.0
1979-03-04 15:28:09.410 ,7,1,0.,24.0,0.,24.0
1979-03-04 15:28:33.410 ,6,1,0.,24.0,0.,24.0
1979-03-04 15:28:57.410 ,5,1,0.,24.0,0.,24.0
1979-03-04 15:29:21.410 ,4,1,0.,24.0,0.,24.0
1979-03-04 15:29:45.410 ,3,1,0.,24.0,0.,24.0
1979-03-04 15:30:09.410 ,2,1,0.,24.0,0.,24.0
1979-03-04 15:30:33.410 ,1,1,0.,24.0,0.,24.0
1979-03-04 15:30:57.410 ,0,1,0.,24.0,0.,24.0
1979-03-04 15:31:21.410 ,0,1,0.,24.0,0.,24.0
1979-03-04 15:31:45.410 ,1,1,0.,24.0,0.,24.0
1979-03-04 15:32:09.410 ,2,1,0.,24.0,0.,24.0
1979-03-04 15:32:33.410 ,3,1,0.,24.0,0.,24.0
1979-03-04 15:32:57.410 ,4,1,0.,24.0,0.,24.0
1979-03-04 15:33:21.410 ,5,1,0.,24.0,0.,24.0
1979-03-04 15:33:45.410 ,6,1,0.,24.0,0.,24.0
1979-03-04 15:34:09.410 ,7,1,0.,24.0,0.,24.0
1979-03-04 15:34:33.410 ,7,1,0.,24.0,0.,24.0
1979-03-04 15:34:57.410 ,6,1,0.,24.0,0.,24.0
1979-03-04 15:35:21.410 ,5,1,0.,24.0,0.,24.0
1979-03-04 15:35:45.410 ,4,1,0.,24.0,0.,24.0
1979-03-04 15:36:09.410 ,3,1,0.,24.0,0.,24.0
1979-03-04 15:36:33.410 ,2,1,0.,24.0,0.,24.0
1979-03-04 15:36:57.410 ,1,1,0.,24.0,0.,24.0
1979-03-04 15:37:21.410 ,0,1,0.,24.0,0.,24.0
1979-03-04 15:37:45.410 ,0,1,0.,24.0,0.,24.0
1979-03-04 15:38:09.410 ,1,1,0.,24.0,0.,24.0
1979-03-04 15:38:33.410 ,2,1,0.,24.0,0.,24.0
1979-03-04 15:38:57.410 ,3,1,0.,24.0,0.,24.0
1979-03-04 15:39:21.410 ,4,1,0.,24.0,0.,24.0
1979-03-04 15:39:45.410 ,5,1,0.,24.0,0.,24.0
1979-03-04 15:40:09.410 ,6,1,0.,24.0,0.,24.0
1979-03-04 15:40:33.410 ,7,1,0.,24.0,0.,24.0
1979-03-04 15:40:57.410 ,7,1,0.,24.0,0.,24.0
1979-03-04 15:41:21.410 ,6,1,0.,24.0,0.,24.0
1979-03-04 15:41:45.410 ,5,1,0.,24.0,0.,24.0
1979-03-04 15:42:09.410 ,4,1,0.,24.0,0.,24.0
1979-03-04 15:42:33.410 ,3,1,0.,24.0,0.,24.0
1979-03-04 15:42:57.410 ,2,1,0.,24.0,0.,24.0
1979-03-04 15:43:21.410 ,1,1,0.,24.0,0.,24.0
1979-03-04 15:43:45.410 ,0,1,0.,24.0,0.,24.0
1979-03-04 15:44:09.410 ,0,1,0.,24.0,0.,24.0
1979-03-04 15:44:33.410 ,1,1,0.,24.0,0.,24.0
1979-03-04 15:44:57.410 ,2,1,0.,24.0,0.,24.0
1979-03-04 15:45:21.410 ,3,1,0.,24.0,0.,24.0
1979-03-04 15:45:45.410 ,4,1,0.,24.0,0.,24.0
1979-03-04 15:46:09.410 ,5,1,0.,24.0,0.,24.0
1979-03-04 15:46:33.410 ,6,1,0.,24.0,0.,24.0
1979-03-04 15:46:57.410 ,7,1,0.,24.0,0.,24.0
1979-03-04 15:47:21.410 ,7,1,0.,24.0,0.,24.0
1979-03-04 15:47:45.410 ,6,1,0.,24.0,0.,24.0
1979-03-04 15:48:09.410 ,5,1,0.,24.0,0.,24.0
1979-03-04 15:48:33.410 ,4,1,0.,24.0,0.,24.0
1979-03-04 15:48:57.410 ,3,1,0.,24.0,0.,24.0
1979-03-04 15:49:21.410 ,2,1,0.,24.0,0.,24.0
1979-03-04 15:49:45.410 ,1,1,0.,24.0,0.,24.0
1979-03-04 15:50:09.410 ,0,1,0.,24.0,0.,24.0
1979-03-04 15:50:33.410 ,0,1,0.,24.0,0.,24.0
1979-03-04 15:50:57.410 ,1,1,0.,24.0,0.,24.0
1979-03-04 15:51:21.410 ,2,1,0.,24.0,0.,24.0
1979-03-04 15:51:45.410 ,3,1,0.,24.0,0.,24.0
1979-03-04 15:52:09.410 ,4,1,0.,24.0,0.,24.0
1979-03-04 15:52:33.410 ,5,1,0.,24.0,0.,24.0
1979-03-04 15:52:57.410 ,6,1,0.,24.0,0.,24.0
1979-03-04 15:53:21.410 ,7,1,0.,24.0,0.,24.0
1979-03-04 15:53:45.410 ,7,1,0.,24.0,0.,24.0
1979-03-04 15:54:09.410 ,6,1,0.,24.0,0.,24.0
1979-03-04 15:54:33.410 ,5,1,0.,24.0,0.,24.0
1979-03-04 15:54:57.410 ,4,1,0.,24.0,0.,24.0
1979-03-04 15:55:21.410 ,3,1,0.,24.0,0.,24.0
1979-03-04 15:55:45.410 ,2,1,0.,24.0,0.,24.0
1979-03-04 15:56:09.410 ,1,1,0.,24.0,0.,24.0
1979-03-04 15:56:33.410 ,0,1,0.,24.0,0.,24.0
1979-03-04 15:56:57.410 ,0,1,0.,24.0,0.,24.0
1979-03-04 15:57:21.410 ,1,1,0.,24.0,0.,24.0
1979-03-04 15:57:45.410 ,2,1,0.,24.0,0.,24.0
1979-03-04 15:58:09.410 ,3,1,0.,24.0,0.,24.0
1979-03-04 15:58:33.410 ,4,1,0.,24.0,0.,24.0
1979-03-04 15:58:57.410 ,5,1,0.,24.0,0.,24.0
1979-03-04 15:59:21.410 ,6,1,0.,24.0,0.,24.0
1979-03-04 15:59:45.410 ,7,1,0.,24.0,0.,24.0
1979-03-04 16:00:09.410 ,7,1,0.,24.0,0.,24.0
1979-03-04 16:00:33.410 ,6,1,0.,24.0,0.,24.0
1979-03-04 16:00:57.410 ,5,1,0.,24.0,0.,24.0
1979-03-04 16:01:21.410 ,4,1,0.,24.0,0.,24.0
1979-03-04 16:01:45.410 ,3,1,0.,24.0,0.,24.0
1979-03-04 16:02:09.410 ,2,1,0.,24.0,0.,24.0
1979-03-04 16:02:33.410 ,1,1,0.,24.0,0.,24.0
1979-03-04 16:02:57.410 ,0,1,0.,24.0,0.,24.0
1979-03-04 16:03:21.410 ,0,1,0.,24.0,0.,24.0
1979-03-04 16:03:45.410 ,1,1,0.,24.0,0.,24.0
1979-03-04 16:04:09.410 ,2,1,0.,24.0,0.,24.0
1979-03-04 16:04:33.410 ,3,1,0.,24.0,0.,24.0
1979-03-04 16:04:57.410 ,4,1,0.,24.0,0.,24.0
1979-03-04 16:05:21.410 ,5,1,0.,24.0,0.,24.0
1979-03-04 16:05:45.410 ,6,1,0.,24.0,0.,24.0
1979-03-04 16:06:09.410 ,7,1,0.,24.0,0.,24.0
1979-03-04 16:06:33.410 ,7,1,0.,24.0,0.,24.0
1979-03-04 16:06:57.410 ,6,1,0.,24.0,0.,24.0
1979-03-04 16:07:21.410 ,5,1,0.,24.0,0.,24.0
1979-03-04 16:07:45.410 ,4,1,0.,24.0,0.,24.0
1979-03-04 16:08:09.410 ,3,1,0.,24.0,0.,24.0
1979-03-04 16:08:33.410 ,2,1,0.,24.0,0.,24.0
1979-03-04 16:08:57.410 ,1,1,0.,24.0,0.,24.0
1979-03-04 16:09:21.410 ,0,1,0.,24.0,0.,24.0
1979-03-04 16:09:45.410 ,0,1,0.,24.0,0.,24.0
1979-03-04 16:10:09.410 ,1,1,0.,24.0,0.,24.0
1979-03-04 16:10:33.410 ,2,1,0.,24.0,0.,24.0
1979-03-04 16:10:57.410 ,0,0,0.,24.0,0.,24.0
1979-03-04 16:11:29.810 ,0,0,0.,24.0,0.,24.0
1979-03-04 16:11:45.410 ,5,1,0.,24.0,0.,24.0
1979-03-04 16:12:09.410 ,6,1,0.,24.0,0.,24.0
1979-03-04 16:12:33.410 ,7,1,0.,24.0,0.,24.0
1979-03-04 16:12:57.410 ,7,1,0.,24.0,0.,24.0
1979-03-04 16:13:21.410 ,6,1,0.,24.0,0.,24.0
1979-03-04 16:13:45.410 ,5,1,0.,24.0,0.,24.0
1979-03-04 16:14:09.410 ,4,1,0.,24.0,0.,24.0
1979-03-04 16:14:33.410 ,3,1,0.,24.0,0.,24.0
1979-03-04 16:14:57.410 ,2,1,0.,24.0,0.,24.0
1979-03-04 16:15:21.410 ,1,1,0.,24.0,0.,24.0
1979-03-04 16:15:45.410 ,0,1,0.,24.0,0.,24.0
1979-03-04 16:16:09.410 ,0,1,0.,24.0,0.,24.0
1979-03-04 16:16:33.410 ,1,1,0.,24.0,0.,24.0
1979-03-04 16:16:57.410 ,2,1,0.,24.0,0.,24.0
1979-03-04 16:17:21.410 ,3,1,0.,24.0,0.,24.0
1979-03-04 16:17:45.410 ,4,1,0.,24.0,0.,24.0
1979-03-04 16:18:09.410 ,5,1,0.,24.0,0.,24.0
1979-03-04 16:18:33.410 ,6,1,0.,24.0,0.,24.0
1979-03-04 16:18:57.410 ,7,1,0.,24.0,0.,24.0
1979-03-04 16:19:21.410 ,7,1,0.,24.0,0.,24.0
1979-03-04 16:19:45.410 ,6,1,0.,24.0,0.,24.0
1979-03-04 16:20:09.410 ,5,1,0.,24.0,0.,24.0
1979-03-04 16:20:33.410 ,4,1,0.,24.0,0.,24.0
1979-03-04 16:20:57.410 ,3,1,0.,24.0,0.,24.0
1979-03-04 16:21:21.410 ,2,1,0.,24.0,0.,24.0
1979-03-04 16:21:45.410 ,1,1,0.,24.0,0.,24.0
1979-03-04 16:22:09.410 ,0,1,0.,24.0,0.,24.0
1979-03-04 16:22:33.410 ,0,1,0.,24.0,0.,24.0
1979-03-04 16:22:57.410 ,0,0,,0,,0
1979-03-04 16:26:15.410 ,0,0,0.,24.0,0.,24.0
1979-03-04 16:26:33.410 ,5,1,0.,24.0,0.,24.0
1979-03-04 16:26:57.410 ,4,1,0.,24.0,0.,24.0
1979-03-04 16:27:21.410 ,3,1,0.,24.0,0.,24.0
1979-03-04 16:27:45.410 ,2,1,0.,24.0,0.,24.0
1979-03-04 16:28:09.410 ,1,1,0.,24.0,0.,24.0
1979-03-04 16:28:33.410 ,0,1,0.,24.0,0.,24.0
1979-03-04 16:28:57.410 ,0,1,0.,24.0,0.,24.0
1979-03-04 16:29:21.410 ,1,1,0.,24.0,0.,24.0
1979-03-04 16:29:45.410 ,2,1,0.,24.0,0.,24.0
1979-03-04 16:30:09.410 ,3,1,0.,24.0,0.,24.0
1979-03-04 16:30:33.410 ,4,1,0.,24.0,0.,24.0
1979-03-04 16:30:57.410 ,5,1,0.,24.0,0.,24.0
1979-03-04 16:31:21.410 ,6,1,0.,24.0,0.,24.0
1979-03-04 16:31:45.410 ,7,1,0.,24.0,0.,24.0
1979-03-04 16:32:09.410 ,7,1,0.,24.0,0.,24.0
1979-03-04 16:32:33.410 ,6,1,0.,24.0,0.,24.0
1979-03-04 16:32:57.410 ,5,1,0.,24.0,0.,24.0
1979-03-04 16:33:21.410 ,4,1,0.,24.0,0.,24.0
1979-03-04 16:34:09.410 ,2,1,0.,24.0,0.,24.0
1979-03-04 16:34:33.410 ,1,1,0.,24.0,0.,24.0
1979-03-04 16:34:57.410 ,0,1,0.,24.0,0.,24.0
1979-03-04 16:35:21.410 ,0,1,0.,24.0,0.,24.0
1979-03-04 16:35:45.410 ,1,1,0.,24.0,0.,24.0
1979-03-04 16:36:09.410 ,2,1,0.,24.0,0.,24.0
1979-03-04 16:36:33.410 ,3,1,0.,24.0,0.,24.0
1979-03-04 16:36:57.410 ,4,1,0.,24.0,0.,24.0
1979-03-04 16:37:21.410 ,5,1,0.,24.0,0.,24.0
1979-03-04 16:38:09.410 ,7,1,0.,24.0,0.,24.0
1979-03-04 16:38:33.410 ,7,1,0.,24.0,0.,24.0
1979-03-04 16:38:57.410 ,6,1,0.,24.0,0.,24.0
1979-03-04 16:39:21.410 ,5,1,0.,24.0,0.,24.0
1979-03-04 16:39:45.410 ,4,1,0.,24.0,0.,24.0
1979-03-04 16:40:09.410 ,3,1,0.,24.0,0.,24.0
1979-03-04 16:40:33.410 ,2,1,0.,24.0,0.,24.0
1979-03-04 16:40:57.410 ,1,1,0.,24.0,0.,24.0
1979-03-04 16:41:21.410 ,0,1,0.,24.0,0.,24.0
1979-03-04 16:41:45.410 ,0,1,0.,24.0,0.,24.0
1979-03-04 16:42:09.410 ,1,1,0.,24.0,0.,24.0
1979-03-04 16:42:33.410 ,2,1,0.,24.0,0.,24.0
1979-03-04 16:42:57.410 ,3,1,0.,24.0,0.,24.0
1979-03-04 16:43:21.410 ,4,1,0.,24.0,0.,24.0
1979-03-04 16:43:45.410 ,5,1,0.,24.0,0.,24.0
1979-03-04 16:44:09.410 ,6,1,0.,24.0,0.,24.0
1979-03-04 16:44:33.410 ,7,1,0.,24.0,0.,24.0
1979-03-04 16:44:57.410 ,7,1,0.,24.0,0.,24.0
1979-03-04 16:45:21.410 ,6,1,0.,24.0,0.,24.0
1979-03-04 16:45:45.410 ,5,1,0.,24.0,0.,24.0
1979-03-04 16:46:09.410 ,4,1,0.,24.0,0.,24.0
1979-03-04 16:46:33.410 ,3,1,0.,24.0,0.,24.0
1979-03-04 16:46:57.410 ,2,1,0.,24.0,0.,24.0
1979-03-04 16:47:21.410 ,1,1,0.,24.0,0.,24.0
1979-03-04 16:47:45.410 ,0,1,0.,24.0,0.,24.0
1979-03-04 16:48:09.410 ,0,1,0.,24.0,0.,24.0
1979-03-04 16:48:33.410 ,1,1,0.,24.0,0.,24.0
1979-03-04 16:48:57.410 ,2,1,0.,24.0,0.,24.0
1979-03-04 16:49:21.410 ,3,1,0.,24.0,0.,24.0
1979-03-04 16:49:45.410 ,4,1,0.,24.0,0.,24.0
1979-03-04 16:50:09.410 ,5,1,0.,24.0,0.,24.0
1979-03-04 16:50:33.410 ,6,1,0.,24.0,0.,24.0
1979-03-04 16:50:57.410 ,7,1,0.,24.0,0.,24.0
1979-03-04 16:51:21.410 ,7,1,0.,24.0,0.,24.0
1979-03-04 16:51:45.410 ,6,1,0.,24.0,0.,24.0
1979-03-04 16:52:09.410 ,5,1,0.,24.0,0.,24.0
1979-03-04 16:52:33.410 ,4,1,0.,24.0,0.,24.0
1979-03-04 16:52:57.410 ,3,1,0.,24.0,0.,24.0
1979-03-04 16:53:21.410 ,2,1,0.,24.0,0.,24.0
1979-03-04 16:53:45.410 ,1,1,0.,24.0,0.,24.0
1979-03-04 16:54:09.410 ,0,1,0.,24.0,0.,24.0
1979-03-04 16:54:33.410 ,0,1,0.,24.0,0.,24.0
1979-03-04 16:54:57.410 ,1,1,0.,24.0,0.,24.0
1979-03-04 16:55:21.410 ,2,1,0.,24.0,0.,24.0
1979-03-04 16:55:45.410 ,3,1,0.,24.0,0.,24.0
1979-03-04 16:56:09.410 ,4,1,0.,24.0,0.,24.0
1979-03-04 16:56:33.410 ,5,1,0.,24.0,0.,24.0
1979-03-04 16:56:57.410 ,6,1,0.,24.0,0.,24.0
1979-03-04 16:57:21.410 ,7,1,0.,24.0,0.,24.0
1979-03-04 16:57:45.410 ,7,1,0.,24.0,0.,24.0
1979-03-04 16:58:09.410 ,6,1,0.,24.0,0.,24.0
1979-03-04 16:58:33.410 ,5,1,0.,24.0,0.,24.0
1979-03-04 16:58:57.410 ,4,1,0.,24.0,0.,24.0
1979-03-04 16:59:21.410 ,3,1,0.,24.0,0.,24.0
1979-03-04 16:59:45.410 ,2,1,0.,24.0,0.,24.0
1979-03-04 17:00:09.410 ,1,1,0.,24.0,0.,24.0
1979-03-04 17:00:33.410 ,0,1,0.,24.0,0.,24.0
1979-03-04 17:00:57.410 ,0,1,0.,24.0,0.,24.0
1979-03-04 17:01:21.410 ,1,1,0.,24.0,0.,24.0
1979-03-04 17:01:45.410 ,2,1,0.,24.0,0.,24.0
1979-03-04 17:02:09.410 ,3,1,0.,24.0,0.,24.0
1979-03-04 17:02:33.410 ,4,1,0.,24.0,0.,24.0
1979-03-04 17:02:57.410 ,5,1,0.,24.0,0.,24.0
1979-03-04 17:03:21.410 ,6,1,0.,24.0,0.,24.0
1979-03-04 17:03:45.410 ,7,1,0.,24.0,0.,24.0
1979-03-04 17:04:09.410 ,7,1,0.,24.0,0.,24.0
1979-03-04 17:04:33.410 ,6,1,0.,24.0,0.,24.0
1979-03-04 17:04:57.410 ,5,1,0.,24.0,0.,24.0
1979-03-04 17:05:21.410 ,4,1,0.,24.0,0.,24.0
1979-03-04 17:05:45.410 ,3,1,0.,24.0,0.,24.0
1979-03-04 17:06:09.410 ,2,1,0.,24.0,0.,24.0
1979-03-04 17:06:33.410 ,1,1,0.,24.0,0.,24.0
1979-03-04 17:06:57.410 ,0,1,0.,24.0,0.,24.0
1979-03-04 17:07:21.410 ,0,1,0.,24.0,0.,24.0
1979-03-04 17:07:45.410 ,1,1,0.,24.0,0.,24.0
1979-03-04 17:08:09.410 ,2,1,0.,24.0,0.,24.0
1979-03-04 17:08:33.410 ,3,1,0.,24.0,0.,24.0
1979-03-04 17:08:57.410 ,4,1,0.,24.0,0.,24.0
1979-03-04 17:09:21.410 ,5,1,0.,24.0,0.,24.0
1979-03-04 17:09:45.410 ,6,1,0.,24.0,0.,24.0
1979-03-04 17:10:09.410 ,7,1,0.,24.0,0.,24.0
1979-03-04 17:10:33.410 ,0,0,,0,,0
1979-03-04 17:10:57.410 ,6,1,0.,24.0,0.,24.0
1979-03-04 17:11:21.410 ,5,1,0.,24.0,0.,24.0
1979-03-04 17:11:45.410 ,4,1,0.,24.0,0.,24.0
1979-03-04 17:12:09.410 ,3,1,0.,24.0,0.,24.0
1979-03-04 17:12:33.410 ,2,1,0.,24.0,0.,24.0
1979-03-04 17:12:57.410 ,1,1,0.,24.0,0.,24.0
1979-03-04 17:13:21.410 ,0,1,0.,24.0,0.,24.0
1979-03-04 17:13:45.410 ,0,1,0.,24.0,0.,24.0
1979-03-04 17:14:09.410 ,1,1,0.,24.0,0.,24.0
1979-03-04 17:14:33.410 ,2,1,0.,24.0,0.,24.0
1979-03-04 17:14:57.410 ,3,1,0.,24.0,0.,24.0
1979-03-04 17:15:21.410 ,4,1,0.,24.0,0.,24.0
1979-03-04 17:15:45.410 ,5,1,0.,24.0,0.,24.0
1979-03-04 17:16:09.410 ,6,1,0.,24.0,0.,24.0
1979-03-04 17:16:33.410 ,7,1,0.,24.0,0.,24.0
1979-03-04 17:16:57.410 ,7,1,0.,24.0,0.,24.0
1979-03-04 17:17:21.410 ,6,1,0.,24.0,0.,24.0
1979-03-04 17:17:45.410 ,5,1,0.,24.0,0.,24.0
1979-03-04 17:18:09.410 ,4,1,0.,24.0,0.,24.0
1979-03-04 17:18:33.410 ,3,1,0.,24.0,0.,24.0
1979-03-04 17:18:57.410 ,2,1,0.,24.0,0.,24.0
1979-03-04 17:19:21.410 ,1,1,0.,24.0,0.,24.0
1979-03-04 17:19:45.410 ,0,1,0.,24.0,0.,24.0
1979-03-04 17:20:09.410 ,0,1,0.,24.0,0.,24.0
1979-03-04 17:20:33.410 ,1,1,0.,24.0,0.,24.0
1979-03-04 17:20:57.410 ,0,0,0.,24.0,0.,24.0
1979-03-04 17:21:21.410 ,3,1,0.,24.0,0.,24.0
1979-03-04 17:21:45.410 ,4,1,0.,24.0,0.,24.0
1979-03-04 17:22:09.410 ,5,1,0.,24.0,0.,24.0
1979-03-04 17:22:33.410 ,6,1,0.,24.0,0.,24.0
1979-03-04 17:22:57.410 ,7,1,0.,24.0,0.,24.0
1979-03-04 17:23:21.410 ,7,1,0.,24.0,0.,24.0
1979-03-04 17:23:45.410 ,6,1,0.,24.0,0.,24.0
1979-03-04 17:24:09.410 ,5,1,0.,24.0,0.,24.0
1979-03-04 17:24:33.410 ,4,1,0.,24.0,0.,24.0
1979-03-04 17:24:57.410 ,3,1,0.,24.0,0.,24.0
1979-03-04 17:25:21.410 ,2,1,0.,24.0,0.,24.0
1979-03-04 17:25:45.410 ,1,1,0.,24.0,0.,24.0
1979-03-04 17:26:09.410 ,0,1,0.,24.0,0.,24.0
1979-03-04 17:26:33.410 ,0,1,0.,24.0,0.,24.0
1979-03-04 17:26:57.410 ,1,1,0.,24.0,0.,24.0
1979-03-04 17:27:21.410 ,2,1,0.,24.0,0.,24.0
1979-03-04 17:27:45.410 ,3,1,0.,24.0,0.,24.0
1979-03-04 17:28:09.410 ,4,1,0.,24.0,0.,24.0
1979-03-04 17:28:33.410 ,5,1,0.,24.0,0.,24.0
1979-03-04 17:28:57.410 ,6,1,0.,24.0,0.,24.0
1979-03-04 17:29:21.410 ,7,1,0.,24.0,0.,24.0
1979-03-04 17:29:45.410 ,7,1,0.,24.0,0.,24.0
1979-03-04 17:30:09.410 ,6,1,0.,24.0,0.,24.0
1979-03-04 17:30:33.410 ,5,1,0.,24.0,0.,24.0
1979-03-04 17:30:57.410 ,4,1,0.,24.0,0.,24.0
1979-03-04 17:31:21.410 ,3,1,0.,24.0,0.,24.0
1979-03-04 17:31:45.410 ,2,1,0.,24.0,0.,24.0
1979-03-04 17:32:09.410 ,1,1,0.,24.0,0.,24.0
1979-03-04 17:32:33.410 ,0,1,0.,24.0,0.,24.0
1979-03-04 17:32:57.410 ,0,1,0.,24.0,0.,24.0
1979-03-04 17:33:21.410 ,1,1,0.,24.0,0.,24.0
1979-03-04 17:33:45.410 ,2,1,0.,24.0,0.,24.0
1979-03-04 17:34:09.410 ,3,1,0.,24.0,0.,24.0
1979-03-04 17:34:33.410 ,4,1,0.,24.0,0.,24.0
1979-03-04 17:34:57.410 ,5,1,0.,24.0,0.,24.0
1979-03-04 17:35:21.410 ,6,1,0.,24.0,0.,24.0
1979-03-04 17:35:45.410 ,7,1,0.,24.0,0.,24.0
1979-03-04 17:36:09.410 ,7,1,0.,24.0,0.,24.0
1979-03-04 17:36:33.410 ,6,1,0.,24.0,0.,24.0
1979-03-04 17:36:57.410 ,5,1,0.,24.0,0.,24.0
1979-03-04 17:37:21.410 ,4,1,0.,24.0,0.,24.0
1979-03-04 17:37:45.410 ,3,1,0.,24.0,0.,24.0
1979-03-04 17:38:09.410 ,2,1,0.,24.0,0.,24.0
1979-03-04 17:38:33.410 ,0,0,0.,24.0,0.,24.0
1979-03-04 17:38:57.410 ,4,1,0.,24.0,0.,24.0
1979-03-04 17:39:21.410 ,7,1,0.,24.0,0.,24.0
1979-03-04 17:39:45.410 ,3,1,0.,24.0,0.,24.0
1979-03-04 17:40:09.410 ,0,1,0.,24.0,0.,24.0
1979-03-04 17:40:33.410 ,4,1,0.,24.0,0.,24.0
1979-03-04 17:40:57.410 ,7,1,0.,24.0,0.,24.0
1979-03-04 17:41:21.410 ,3,1,0.,24.0,0.,24.0
1979-03-04 17:41:45.410 ,0,1,0.,24.0,0.,24.0
1979-03-04 17:42:09.410 ,4,1,0.,24.0,0.,24.0
1979-03-04 17:42:33.410 ,7,1,0.,24.0,0.,24.0
1979-03-04 17:42:57.410 ,3,1,0.,24.0,0.,24.0
1979-03-04 17:43:21.410 ,0,1,0.,24.0,0.,24.0
1979-03-04 17:43:45.410 ,4,1,0.,24.0,0.,24.0
1979-03-04 17:44:09.410 ,7,1,0.,24.0,0.,24.0
1979-03-04 17:44:33.410 ,3,1,0.,24.0,0.,24.0
1979-03-04 17:44:57.410 ,0,1,0.,24.0,0.,24.0
1979-03-04 17:45:21.410 ,4,1,0.,24.0,0.,24.0
1979-03-04 17:45:45.410 ,7,1,0.,24.0,0.,24.0
1979-03-04 17:46:09.410 ,3,1,0.,24.0,0.,24.0
1979-03-04 17:46:33.410 ,0,1,0.,24.0,0.,24.0
1979-03-04 17:46:57.410 ,4,1,0.,24.0,0.,24.0
1979-03-04 17:47:21.410 ,7,1,0.,24.0,0.,24.0
1979-03-04 17:47:45.410 ,3,1,0.,24.0,0.,24.0
1979-03-04 17:48:09.410 ,0,1,0.,24.0,0.,24.0
1979-03-04 17:48:33.410 ,4,1,0.,24.0,0.,24.0
1979-03-04 17:48:57.410 ,7,1,0.,24.0,0.,24.0
1979-03-04 17:49:21.410 ,3,1,0.,24.0,0.,24.0
1979-03-04 17:49:45.410 ,0,1,0.,24.0,0.,24.0
1979-03-04 17:50:09.410 ,4,1,0.,24.0,0.,24.0
1979-03-04 17:50:33.410 ,7,1,1.,24.0,0.,24.0
1979-03-04 17:50:57.410 ,3,1,0.,24.0,0.,24.0
1979-03-04 17:51:21.410 ,0,1,0.,24.0,0.,24.0
1979-03-04 17:51:45.410 ,4,1,0.,24.0,0.,24.0
1979-03-04 17:52:09.410 ,7,1,0.,24.0,0.,24.0
1979-03-04 17:52:33.410 ,3,1,0.,24.0,0.,24.0
1979-03-04 17:52:57.410 ,0,1,0.,24.0,0.,24.0
1979-03-04 17:53:21.410 ,4,1,0.,24.0,0.,24.0
1979-03-04 17:53:45.410 ,7,1,1.,24.0,0.,24.0
1979-03-04 17:54:09.410 ,3,1,0.,24.0,0.,24.0
1979-03-04 17:54:33.410 ,0,1,0.,24.0,0.,24.0
1979-03-04 17:54:57.410 ,4,1,0.,24.0,0.,24.0
1979-03-04 17:55:21.410 ,7,1,1.,24.0,0.,24.0
1979-03-04 17:55:45.410 ,3,1,0.,24.0,0.,24.0
1979-03-04 17:56:09.410 ,0,1,0.,24.0,0.,24.0
1979-03-04 17:56:33.410 ,4,1,0.,24.0,0.,24.0
1979-03-04 17:56:57.410 ,7,1,0.,24.0,0.,24.0
1979-03-04 17:57:21.410 ,3,1,0.,24.0,0.,24.0
1979-03-04 17:57:45.410 ,0,1,0.,24.0,0.,24.0
1979-03-04 17:58:09.410 ,4,1,0.,24.0,0.,24.0
1979-03-04 17:58:33.410 ,7,1,1.,24.0,0.,24.0
1979-03-04 17:58:57.410 ,3,1,0.,24.0,0.,24.0
1979-03-04 17:59:21.410 ,0,1,0.,24.0,0.,24.0
1979-03-04 17:59:45.410 ,4,1,0.,24.0,0.,24.0
1979-03-04 18:00:09.410 ,7,1,0.,24.0,0.,24.0
